Wind_Speed
34 33 30 25 26 31 34 33 33 32 32 32 32 32 32 31 30 30 33 34 35 35 33 31 31 29 26 27 28 26 26 26 26 26 27 27 27 28 29 29 29 30 31 33 34 34 34 34 33 33 32 33 34 35 35 35 35 35 34 34 34 35 35 36 36 37 37 37 38 38 39 39 39 39 39 39 40 41 41 42 42 43 44 44 44 44
34 34 28 27 31 34 34 34 34 34 33 33 33 33 33 32 32 33 34 35 36 36 33 31 31 29 27 27 27 27 28 28 29 30 30 29 29 29 30 30 30 31 32 33 34 34 34 34 34 33 34 34 35 35 36 36 37 38 37 37 37 37 37 38 38 38 39 39 40 40 40 41 41 42 42 42 43 43 43 44 44 44 45 46 46 46
36 33 29 31 35 35 35 35 35 35 35 34 34 35 34 34 35 36 35 35 36 35 34 32 31 28 27 27 27 28 29 30 32 32 31 30 31 31 31 31 32 32 33 33 34 34 34 35 35 35 35 36 36 37 37 37 38 39 40 40 40 40 40 40 40 41 41 42 42 43 43 43 43 44 44 44 45 46 46 46 46 46 47 47 47 47
38 34 32 35 36 36 36 35 35 36 36 36 36 37 36 35 38 38 35 35 35 34 33 32 31 29 27 27 29 30 31 32 33 33 32 33 34 34 33 33 33 33 34 34 35 35 36 36 37 37 38 38 39 39 39 39 40 40 41 42 42 42 42 42 42 43 43 44 45 45 46 46 47 47 47 47 47 48 48 49 49 49 49 49 49 50
39 35 34 36 37 38 37 36 36 37 38 38 38 38 37 37 39 38 36 35 34 33 32 32 32 29 26 28 30 31 33 34 35 35 35 36 36 36 36 35 35 35 35 36 36 37 38 38 38 39 40 40 41 42 42 42 42 42 43 43 43 44 44 45 45 46 46 46 47 48 48 49 50 50 50 50 50 50 50 51 51 52 52 52 52 52
39 36 36 37 38 39 39 38 37 39 40 40 38 38 38 38 38 37 36 34 33 32 31 32 33 30 27 30 31 32 34 35 35 36 36 37 38 38 38 38 38 38 38 38 38 38 39 39 40 41 42 42 43 44 44 45 45 45 45 45 45 46 47 48 48 48 48 49 49 49 50 51 52 52 53 53 53 53 53 53 53 54 54 55 55 55
40 37 39 40 40 41 41 39 38 40 42 39 37 37 38 38 37 36 35 34 33 31 30 31 33 32 32 33 33 33 34 35 36 36 37 38 39 39 40 41 41 41 40 40 40 40 41 41 42 43 44 44 45 46 46 47 47 47 48 48 49 50 50 51 51 52 52 52 51 51 52 52 53 54 54 54 54 54 54 55 56 56 57 58 58 58
41 40 42 42 42 41 40 39 40 41 41 38 36 36 37 36 35 34 33 33 33 32 32 32 32 33 35 36 35 34 35 35 36 37 38 39 40 41 42 43 43 43 43 43 43 43 43 44 45 46 46 47 48 48 49 50 50 51 52 52 53 53 53 54 54 55 55 55 54 54 53 53 54 55 56 56 56 56 56 57 58 58 60 60 61 62
44 44 43 43 43 41 39 40 41 40 39 37 36 35 35 34 34 34 33 33 33 33 34 33 33 36 38 38 39 37 37 37 37 38 40 41 41 42 43 44 45 45 45 45 45 45 46 47 48 48 49 50 51 52 53 54 54 54 54 54 54 55 55 56 56 56 56 56 56 55 55 55 55 55 56 58 58 59 59 59 60 60 61 63 64 65
46 45 43 43 42 40 40 40 40 39 38 37 35 34 34 34 34 34 34 34 34 35 35 34 35 38 41 41 41 40 39 41 41 42 42 43 43 44 44 45 46 46 47 47 46 46 47 49 50 50 51 52 53 54 55 55 55 55 55 55 55 56 56 57 57 57 57 57 56 56 56 56 57 57 57 58 59 61 62 63 63 64 64 64 65 66
45 44 42 41 40 39 40 39 39 38 37 35 34 33 33 34 34 34 35 35 36 37 36 36 36 39 43 44 43 43 43 44 45 46 46 46 45 46 47 48 48 48 48 48 48 48 50 51 52 52 52 53 53 54 54 55 55 55 56 56 57 58 58 58 58 58 58 58 57 57 57 58 58 59 59 60 60 61 63 64 66 67 67 67 67 68
42 41 40 39 39 39 38 37 37 35 35 34 33 33 34 35 35 36 36 36 37 39 39 39 39 41 45 45 44 46 47 47 48 49 50 49 49 49 50 50 50 50 49 49 50 52 53 54 55 55 55 55 54 54 54 55 56 57 58 59 60 61 61 60 59 60 60 59 59 59 59 60 60 61 61 62 62 63 64 65 66 68 69 70 70 70
39 39 38 38 38 37 36 35 34 34 34 34 34 35 36 37 37 37 37 38 40 41 41 42 43 45 46 45 45 47 48 49 50 51 51 51 51 52 52 52 51 51 51 52 53 54 55 55 56 57 56 56 55 55 56 57 58 59 61 62 62 63 63 63 63 62 62 62 62 62 61 62 62 63 63 64 64 65 66 67 68 69 70 72 73 73
38 37 37 37 36 35 35 34 33 34 35 36 36 37 37 38 39 38 39 41 43 43 43 44 46 48 47 47 47 49 50 51 51 51 51 51 52 52 52 52 51 51 52 53 54 55 56 56 57 57 57 57 57 58 59 60 61 62 62 63 63 63 64 65 65 65 64 64 64 64 64 64 64 65 65 66 66 67 68 69 70 71 72 73 74 75
38 37 36 35 34 34 34 34 34 35 36 37 37 38 39 38 39 40 42 45 46 46 47 48 49 49 48 48 49 51 52 52 51 51 51 50 51 51 51 51 50 50 52 53 54 56 57 58 58 59 59 60 60 61 62 63 64 64 64 63 64 64 64 66 67 67 66 66 66 65 65 65 66 66 67 68 68 69 70 71 72 73 74 75 76 77
38 36 35 35 35 35 34 34 34 35 36 37 38 39 39 39 40 43 46 48 49 50 50 51 51 51 50 51 52 54 54 53 52 50 50 50 50 50 49 49 49 50 52 53 55 56 57 58 59 60 61 62 64 65 66 67 67 67 66 65 65 65 66 67 69 70 69 69 68 67 67 67 67 68 69 70 71 71 72 72 73 74 76 77 78 78
39 38 36 36 36 35 35 35 35 36 38 39 39 40 40 41 43 46 48 49 51 53 53 53 53 53 53 54 55 54 54 53 52 50 51 51 50 49 48 49 50 51 53 54 55 57 58 59 61 62 64 66 67 68 69 70 69 69 68 67 66 67 68 69 70 70 70 69 68 67 67 68 69 70 71 72 73 74 74 75 76 77 78 79 80 80
41 40 39 37 36 36 36 36 37 39 40 40 40 40 42 44 47 48 50 51 54 57 57 56 55 55 55 57 56 55 55 53 52 52 53 52 50 49 50 51 52 54 55 56 58 59 61 62 64 66 67 68 69 70 70 70 70 70 69 69 69 69 69 69 69 68 67 67 67 67 67 69 70 72 73 74 74 75 75 76 77 77 78 79 80 80
43 42 42 40 38 37 37 39 41 41 41 42 42 43 45 48 49 50 52 54 57 60 61 58 57 57 58 60 59 56 55 55 54 54 54 52 51 52 53 54 56 57 58 59 60 62 64 65 66 67 68 69 69 70 70 70 70 70 70 70 70 70 70 70 70 69 69 69 69 69 70 71 71 71 71 72 72 72 73 74 75 76 76 77 78 78
45 44 44 42 40 40 41 42 43 42 42 43 46 47 49 51 52 52 54 57 58 60 62 61 60 60 61 63 63 59 56 55 55 55 53 52 53 54 55 56 57 59 60 61 62 64 65 66 67 68 68 69 69 69 70 70 70 69 69 69 70 70 71 71 71 71 71 71 71 71 71 71 71 71 71 71 72 72 73 74 74 75 76 77 78 80
47 46 44 43 43 44 45 44 43 43 45 48 49 51 52 53 53 54 56 58 59 59 61 62 63 65 65 67 65 60 57 56 55 54 53 54 55 56 57 58 59 60 61 63 64 65 67 68 68 68 69 70 70 70 70 70 70 69 69 69 68 68 68 69 69 69 70 70 71 71 71 71 71 71 72 73 74 74 75 75 76 77 79 80 81 82
47 46 45 46 46 46 46 46 47 48 50 52 52 54 55 54 54 55 57 58 57 58 60 61 66 70 68 66 63 59 58 58 56 55 55 57 58 59 60 61 62 63 64 65 67 68 69 69 69 70 71 71 71 71 71 71 71 70 69 68 67 67 67 67 68 68 68 69 69 70 70 71 71 72 73 74 75 76 77 78 79 80 80 81 82 82
48 48 49 49 49 49 49 51 52 53 54 55 56 57 56 55 54 54 56 57 56 60 63 63 67 72 68 61 59 58 59 58 57 57 59 61 62 63 64 65 65 65 66 68 69 70 71 71 72 73 73 73 72 72 71 71 70 69 67 66 66 66 66 67 68 68 69 69 70 71 72 73 74 75 75 76 77 78 78 79 80 80 81 82 83 84
50 51 52 52 53 54 55 56 57 57 58 58 57 56 55 55 54 53 55 57 59 65 66 63 66 71 66 59 59 60 60 59 59 60 61 63 65 66 68 68 68 68 69 70 71 72 73 73 73 73 73 72 71 70 69 68 67 65 65 65 66 66 68 69 70 71 72 73 74 74 75 75 75 76 77 77 78 79 79 80 81 82 83 84 85 86
52 54 55 57 60 62 62 61 60 59 59 58 58 58 58 57 56 56 58 59 63 68 66 63 67 69 63 60 61 61 61 61 61 62 63 65 67 68 68 69 70 71 72 72 72 73 73 73 72 71 71 69 68 67 67 66 65 65 66 67 69 70 71 72 73 74 74 75 75 75 76 76 77 78 78 79 80 81 81 82 83 84 85 86 87 88
57 59 61 62 63 64 63 62 61 59 59 60 62 61 60 59 59 60 61 63 67 69 65 65 69 68 62 61 62 62 61 62 63 64 65 66 67 67 69 70 72 72 72 73 73 73 72 71 70 69 68 66 66 67 67 67 67 68 69 70 71 72 73 73 74 74 75 75 76 76 77 78 78 79 80 81 81 82 83 84 85 86 87 88 89 90
59 60 61 61 62 63 63 63 62 61 62 63 63 62 61 62 62 63 65 69 69 67 67 69 69 66 62 61 62 63 62 62 63 64 65 66 68 70 72 73 73 73 72 72 71 71 69 68 66 66 65 65 66 67 68 68 69 70 71 71 72 72 73 73 74 74 75 76 76 77 78 79 79 80 81 82 83 84 85 86 87 88 89 89 90 91
58 60 60 60 61 62 63 62 63 63 64 64 64 65 64 64 66 68 70 70 67 66 71 71 66 64 62 60 63 65 63 63 64 64 66 68 70 72 73 73 72 71 70 70 68 67 65 64 64 64 64 65 66 67 67 68 69 69 70 71 71 72 73 74 75 75 76 76 77 77 78 79 80 81 82 83 84 86 87 88 89 89 90 90 90 90
58 60 60 59 60 62 62 62 63 63 64 65 66 67 67 67 70 71 71 70 68 70 71 67 63 63 62 62 66 67 64 64 65 65 67 69 71 72 73 73 71 69 68 67 66 64 63 63 63 63 64 65 66 66 66 67 68 69 70 71 72 72 73 74 75 76 76 77 77 78 79 80 81 82 83 84 86 87 88 89 89 89 89 89 89 88
58 60 61 61 62 63 63 64 65 65 66 67 68 68 69 71 72 72 72 70 69 68 66 63 63 65 63 64 67 64 61 63 64 66 69 70 71 73 73 71 69 67 66 65 64 63 62 62 62 63 64 65 65 66 67 68 69 69 70 71 72 73 74 75 76 76 77 77 78 79 80 81 83 83 85 86 87 88 88 88 88 88 88 87 87 86
59 61 62 62 63 64 67 68 67 66 66 68 69 71 73 74 74 72 71 68 65 64 62 63 67 67 65 64 64 61 61 64 66 68 69 70 72 72 70 68 66 65 64 63 63 62 62 62 62 63 64 65 66 67 68 68 69 70 71 72 73 74 75 76 76 76 77 78 79 80 82 83 84 85 86 87 87 87 87 87 86 85 85 83 82 80
58 60 61 61 62 65 67 65 62 61 64 68 73 75 75 73 71 69 67 64 62 62 63 65 69 70 67 64 64 63 64 66 67 69 70 71 71 69 67 65 64 64 63 63 62 62 62 62 62 63 64 65 67 67 68 68 69 70 71 72 73 74 75 76 76 77 78 79 80 81 83 84 85 86 86 86 86 85 84 83 82 80 79 77 75 73
57 57 58 57 59 61 61 61 62 63 68 75 78 75 70 68 67 66 64 62 61 63 65 69 72 70 67 66 67 66 66 67 69 70 71 70 68 66 64 63 63 63 62 62 62 62 62 62 63 63 64 65 66 67 67 68 69 70 71 72 73 75 76 77 78 79 79 80 81 82 83 84 85 84 84 83 81 80 78 76 75 73 70 69 67 66
57 56 56 56 59 62 64 66 69 71 76 81 79 72 67 67 67 67 64 62 62 65 69 72 72 69 67 67 68 68 68 70 71 70 69 68 66 64 62 62 62 62 61 62 62 61 61 62 62 63 64 65 66 67 67 69 69 70 72 73 75 76 77 78 79 80 80 81 82 83 83 83 82 81 80 78 75 73 71 69 67 66 64 63 62 61
57 58 59 62 65 69 70 69 70 74 79 80 77 73 70 69 68 68 67 65 65 68 71 72 72 69 68 68 68 69 70 70 69 67 66 65 63 62 61 61 61 61 62 62 61 61 62 62 63 64 65 65 66 67 68 69 70 72 73 75 76 77 78 79 80 81 82 82 82 82 81 80 78 76 74 72 69 67 65 64 62 61 61 60 60 60
62 64 66 68 69 70 69 69 70 74 76 75 75 74 71 69 68 68 68 67 67 69 72 73 72 70 69 69 69 69 68 67 66 64 63 62 61 62 62 62 62 62 62 62 62 62 63 64 64 65 65 66 67 69 70 71 73 74 75 76 77 78 79 80 81 81 81 81 80 79 78 76 74 72 69 66 64 62 61 60 60 60 60 59 60 60
68 69 68 67 67 68 69 71 72 73 73 73 73 70 66 66 67 68 70 70 67 69 72 73 71 69 69 68 68 67 66 66 65 62 61 61 62 63 63 63 63 63 63 62 63 63 64 65 65 66 67 68 70 71 72 74 75 76 76 77 78 79 80 80 80 80 80 79 78 76 74 72 69 66 64 61 60 59 59 59 59 60 60 61 61 62
69 68 66 66 69 70 71 72 72 73 75 73 69 65 65 67 68 69 73 73 68 68 71 70 69 69 68 67 66 66 65 65 63 61 61 63 64 64 63 63 63 63 63 63 64 64 65 66 67 68 70 71 72 73 75 76 76 77 78 78 79 80 80 80 80 79 78 76 74 72 69 66 63 61 60 59 58 59 59 60 61 62 62 63 63 64
67 67 66 68 71 72 71 72 72 73 74 72 68 66 67 68 68 70 75 75 69 66 67 67 68 68 67 67 67 66 65 65 62 60 62 64 64 63 63 62 62 63 64 65 66 67 68 69 70 71 72 73 74 75 76 77 77 78 79 79 80 80 79 79 77 76 74 71 69 66 63 61 59 58 58 58 59 60 61 62 63 63 64 65 65 65
68 68 70 72 72 71 70 71 72 72 72 71 70 68 67 67 69 72 76 75 68 64 65 66 68 68 67 67 66 65 64 63 61 61 63 64 63 62 63 63 64 65 67 68 69 70 71 72 73 73 74 75 76 77 77 78 78 78 78 78 78 78 77 75 73 71 68 66 63 61 59 58 57 58 59 59 60 61 62 63 64 65 65 66 66 67
71 72 73 73 72 70 70 70 71 72 72 71 70 68 66 67 70 71 71 70 66 65 66 66 66 67 66 65 64 63 62 61 62 62 63 63 64 64 65 66 67 68 69 70 71 72 73 74 75 75 76 76 77 77 77 77 76 76 76 76 76 74 72 70 68 65 63 61 59 58 57 58 58 59 60 61 62 63 64 65 65 66 66 67 67 67
74 74 74 73 71 70 69 67 69 73 72 68 67 67 65 67 70 70 68 67 67 66 65 63 63 64 64 63 63 62 62 62 63 64 65 65 66 66 68 69 70 70 71 72 73 74 75 76 76 76 76 76 76 75 75 74 74 74 74 72 70 68 66 64 62 60 58 57 57 57 58 59 59 60 61 62 63 63 64 65 66 66 67 67 67 68
76 74 73 71 69 67 66 65 69 72 68 63 64 67 67 68 69 68 67 67 66 64 63 63 63 63 63 63 62 61 62 63 64 65 65 66 67 68 70 71 72 73 73 74 75 76 76 76 76 76 76 75 75 74 73 72 71 70 69 67 65 63 61 59 57 56 56 56 56 57 57 58 59 60 61 62 63 63 64 65 66 67 67 67 67 67
74 71 69 67 65 65 66 67 69 69 65 62 65 68 68 67 67 66 66 65 64 63 64 64 63 63 62 62 61 62 63 64 65 65 66 67 69 70 71 72 73 74 75 75 76 76 76 76 76 76 75 74 73 71 70 68 66 65 64 62 60 58 56 55 55 55 55 55 56 56 57 58 59 60 61 62 62 63 64 65 66 66 67 67 67 67
68 66 64 63 63 64 65 66 66 66 63 63 63 64 66 66 66 65 65 64 64 65 64 64 63 62 62 62 62 64 65 65 66 67 68 69 70 71 72 73 74 75 75 75 75 76 76 76 75 74 72 70 68 66 64 63 62 61 60 58 57 55 54 54 54 55 55 56 56 57 57 58 59 60 61 62 63 63 64 65 65 65 65 66 66 66
61 61 61 61 61 62 64 64 63 62 61 61 62 63 64 65 64 64 64 64 65 65 65 64 63 62 62 63 65 66 67 68 68 69 70 70 71 71 72 73 74 74 74 74 74 74 74 73 71 68 66 63 62 60 59 58 57 56 56 55 54 54 54 55 55 55 56 56 57 57 58 59 60 60 61 62 62 63 63 64 64 64 65 65 65 65
57 57 59 60 60 61 62 62 61 61 61 61 62 61 61 62 63 64 64 65 66 66 65 64 63 63 64 66 67 69 69 70 70 71 71 71 71 72 72 73 73 73 73 73 72 70 68 66 63 60 58 56 55 54 54 54 54 54 54 54 54 54 54 55 55 56 56 57 57 58 58 58 59 60 60 60 61 62 62 63 63 64 64 64 64 64
56 56 58 59 59 60 61 60 60 60 59 58 59 60 60 62 63 65 66 67 67 66 66 65 65 66 67 68 70 71 71 70 70 71 70 70 71 71 71 71 71 70 69 68 66 63 61 59 56 53 51 50 50 51 51 52 52 53 54 53 53 53 53 53 54 55 55 56 56 57 57 58 58 58 59 60 60 61 62 63 63 63 63 63 63 63
55 56 57 57 58 58 58 58 57 57 57 58 60 61 62 63 65 66 67 68 67 67 66 66 67 68 69 70 71 71 70 69 69 69 69 69 69 69 68 67 66 64 63 61 59 57 55 53 51 49 48 48 49 50 51 51 51 52 51 51 50 51 51 52 52 53 53 54 55 55 56 57 57 58 59 59 60 61 61 62 62 62 61 62 62 62
54 54 53 54 56 56 55 55 56 57 59 60 60 61 62 64 66 68 69 69 68 67 67 67 68 70 71 71 70 68 67 67 66 66 67 67 65 63 62 60 59 58 57 55 54 52 51 50 49 48 48 48 49 49 49 48 49 49 48 48 48 49 50 50 50 51 52 53 54 54 55 56 57 58 58 59 59 60 60 60 60 60 60 60 60 61
51 50 50 52 55 56 55 56 58 59 60 60 60 61 64 66 68 69 69 67 66 66 66 68 69 70 69 67 66 65 65 65 64 63 62 61 59 57 55 55 54 53 52 52 51 50 49 48 48 47 47 46 46 45 45 46 46 47 47 47 48 49 49 49 50 51 51 52 53 54 55 56 57 58 58 59 59 59 58 57 57 57 59 59 60 61
Wind_Direction
274 274 276 281 280 275 274 278 281 283 283 282 281 281 282 283 285 285 282 281 282 283 284 285 287 290 288 285 288 292 292 292 291 288 287 287 289 291 292 291 291 292 293 294 294 294 293 291 289 288 287 286 286 285 284 284 283 281 280 278 277 276 275 275 275 276 276 277 278 278 279 280 280 280 279 278 276 274 273 272 272 272 271 271 271 270
272 273 278 279 275 274 277 281 282 281 280 279 279 279 280 283 286 284 282 282 283 284 286 286 287 288 287 287 290 291 291 290 289 288 288 290 292 293 291 291 292 292 293 294 294 294 293 291 290 288 287 287 286 284 283 281 281 280 280 278 277 276 275 275 275 276 277 278 278 279 279 279 279 279 278 277 276 274 272 271 269 268 268 267 267 267
272 275 278 276 275 277 279 280 280 280 279 278 278 278 281 285 285 282 282 282 282 285 287 287 287 286 286 289 291 291 290 289 289 290 292 296 296 294 293 293 293 293 293 294 294 294 293 291 290 289 288 288 287 285 282 280 278 278 277 277 277 276 276 276 276 277 278 279 279 279 279 279 278 277 276 275 274 274 273 271 269 267 266 264 264 263
272 275 276 276 277 278 278 278 279 279 278 278 278 279 282 284 282 281 282 281 281 283 284 286 287 288 290 293 293 291 291 291 291 294 298 300 299 296 295 294 293 294 294 294 294 293 292 291 290 290 289 288 287 285 283 281 278 276 275 274 274 275 276 277 277 278 279 280 280 280 280 279 278 277 275 274 272 271 271 270 269 267 265 263 261 260
273 276 277 277 277 278 277 277 277 278 277 277 278 280 281 281 280 281 281 280 280 281 283 286 288 291 294 295 294 293 294 293 295 299 300 300 298 297 295 294 293 294 294 293 293 292 291 290 289 289 288 287 286 284 283 281 278 276 273 272 272 273 275 276 277 278 279 280 280 280 280 279 279 277 275 274 272 270 268 268 267 267 265 263 261 259
274 277 278 276 276 277 277 277 277 277 276 276 278 279 279 279 278 279 279 278 278 280 283 285 288 294 295 292 292 293 293 294 296 298 298 297 296 295 294 293 293 293 293 291 290 289 289 288 288 287 286 284 283 282 280 279 277 275 273 272 272 274 275 276 277 278 280 280 280 280 279 278 277 276 275 273 272 270 268 266 265 265 264 263 262 260
275 277 276 276 276 276 276 277 276 275 274 276 278 278 277 276 276 276 276 276 277 279 281 283 288 294 295 292 292 292 291 293 296 295 294 294 293 293 292 293 293 292 291 290 289 288 287 287 286 285 284 282 280 279 277 275 274 273 272 272 274 275 277 278 279 280 282 282 281 280 279 278 277 276 274 273 272 271 269 267 266 264 263 263 263 262
275 275 274 275 275 275 275 275 273 273 275 277 277 274 274 274 274 273 273 274 277 280 282 284 289 292 292 292 292 291 291 292 293 293 293 292 291 291 292 291 291 290 289 288 288 287 286 286 285 284 282 280 278 277 275 274 274 273 273 273 274 276 278 279 280 282 282 282 281 280 279 278 277 276 275 274 273 272 270 269 267 266 264 263 263 262
273 272 272 272 272 272 272 272 272 274 275 275 273 272 272 272 272 272 273 275 278 281 284 288 291 290 290 291 290 291 293 293 292 291 290 289 289 289 290 289 288 287 286 286 285 285 285 284 283 282 280 279 278 277 276 275 275 275 274 275 276 277 279 280 282 282 282 281 280 279 277 276 275 274 273 273 273 273 273 271 270 268 267 265 265 264
269 269 269 269 269 270 270 270 272 273 272 272 271 270 270 270 271 273 274 277 280 283 286 290 291 290 289 289 291 294 296 295 293 292 290 290 289 289 288 286 285 284 283 284 284 285 285 284 282 281 280 279 278 278 277 278 278 278 277 278 279 281 283 283 283 282 281 280 279 277 275 273 272 270 270 270 271 272 272 272 272 270 269 267 266 266
266 266 266 267 268 268 268 269 270 270 270 270 269 269 269 270 271 273 276 279 282 285 289 291 290 289 289 291 296 298 297 296 295 294 294 294 293 291 289 287 286 285 285 286 287 287 286 284 283 282 281 280 279 279 279 279 280 280 281 282 283 285 286 285 284 282 281 280 277 275 273 272 270 269 269 269 269 269 270 270 271 271 271 270 269 268
264 264 264 265 265 266 267 268 268 268 268 268 268 268 268 270 272 275 278 281 284 287 290 289 288 287 289 294 298 298 297 298 297 296 296 296 294 292 290 289 288 289 289 291 291 290 288 286 285 284 283 282 281 281 281 281 282 283 285 286 286 287 286 285 283 282 281 280 278 275 273 272 271 270 270 269 269 269 268 269 269 270 270 271 270 270
262 262 262 262 263 265 265 265 265 265 266 266 267 268 270 273 275 277 281 283 285 286 287 287 287 288 292 295 296 296 296 296 294 294 294 293 293 291 290 289 290 292 293 293 292 290 288 286 285 285 284 283 282 282 283 284 285 285 286 286 286 285 285 284 282 281 281 279 278 276 274 272 272 271 271 271 270 270 269 269 268 268 268 269 269 270
260 259 260 261 262 263 262 262 262 262 264 266 268 270 271 273 275 279 282 282 282 284 285 286 287 289 294 297 297 295 293 292 291 290 290 290 290 290 289 290 291 292 292 292 291 289 288 286 285 283 282 282 282 283 283 284 285 285 285 285 284 283 282 281 281 281 280 279 277 276 274 272 271 271 271 271 271 271 270 269 269 268 268 267 268 269
257 258 259 260 260 259 259 259 259 262 265 268 269 270 272 274 277 280 280 281 283 285 286 286 287 292 297 299 298 295 291 289 288 287 287 288 288 288 288 289 289 289 289 289 289 289 288 286 285 283 283 283 283 283 284 285 285 285 284 283 282 281 280 280 281 281 280 278 277 276 274 273 272 271 271 271 271 271 271 271 270 269 269 268 268 268
256 256 256 256 256 256 257 258 260 263 266 268 270 272 276 278 279 279 280 283 286 286 286 288 290 294 298 298 296 293 290 289 287 287 287 287 288 288 287 287 287 287 287 288 289 289 288 286 285 284 284 283 284 284 284 285 285 284 283 282 280 279 278 278 279 280 279 278 277 276 274 273 272 272 272 272 272 272 272 271 271 270 270 269 269 270
256 254 253 254 255 256 257 259 262 264 266 269 272 276 280 280 279 280 282 285 286 285 287 289 291 295 297 297 296 292 290 288 286 286 287 288 289 288 286 286 286 287 289 289 289 289 287 286 285 284 284 284 283 284 284 284 283 282 281 280 279 278 278 277 278 278 278 278 277 277 275 274 273 272 272 272 272 272 272 272 271 271 271 270 271 271
257 257 256 255 255 257 259 261 264 266 268 272 276 278 279 278 279 281 283 285 286 286 287 289 292 296 296 296 296 292 289 287 286 287 289 290 289 287 286 287 289 289 290 290 289 287 286 285 284 283 283 282 282 282 282 282 281 280 280 280 279 278 278 277 276 276 275 275 275 275 274 274 273 273 273 273 273 273 273 273 273 273 273 273 273 273
258 260 260 259 258 259 260 263 265 268 271 275 277 278 277 278 279 281 283 286 287 286 287 290 293 296 296 295 293 289 287 287 288 290 291 290 289 288 289 289 289 290 289 288 286 285 284 283 282 282 281 281 281 281 281 281 280 280 280 280 279 279 278 277 276 275 275 275 274 274 274 274 274 274 275 276 276 276 276 276 276 276 276 276 276 277
258 259 260 262 262 262 263 266 268 272 274 274 274 274 276 278 280 282 284 286 286 285 287 290 292 295 295 292 289 289 290 292 292 292 290 289 290 290 289 289 288 287 286 285 284 284 283 283 282 282 282 282 282 281 281 280 280 279 279 279 278 278 278 277 277 277 277 277 277 277 277 276 276 276 276 276 276 277 277 278 278 279 279 279 279 280
258 259 262 264 265 265 268 270 272 272 271 271 272 274 277 279 281 282 283 286 286 285 286 287 288 293 294 290 290 294 296 294 291 290 289 290 290 289 288 288 286 285 285 285 285 285 284 284 284 283 283 283 282 282 281 281 281 280 280 279 279 279 278 278 277 277 277 277 278 278 278 278 278 278 278 278 279 279 280 281 281 282 282 283 283 283
260 262 264 265 267 269 271 271 271 270 270 271 273 275 278 280 281 282 283 286 286 283 284 283 283 291 294 292 294 297 294 291 290 289 289 289 289 289 288 286 286 286 286 286 285 285 284 284 284 283 283 283 282 282 282 282 282 282 282 281 281 281 280 280 279 279 279 279 280 280 280 281 281 282 282 282 283 283 284 284 284 284 284 284 284 284
262 264 266 268 271 273 272 271 271 270 271 272 273 277 280 281 282 282 282 284 282 282 284 280 280 290 295 293 294 292 288 288 288 288 287 288 289 289 287 286 286 286 286 285 284 283 283 283 283 282 282 282 283 283 283 283 283 283 283 283 283 283 283 283 283 283 283 284 284 284 284 285 285 285 285 285 285 285 285 285 285 285 285 285 285 285
264 266 269 271 273 273 272 272 272 271 272 274 276 279 279 279 280 279 279 281 281 284 284 277 279 290 295 292 291 288 285 286 286 286 287 288 288 287 286 286 286 286 285 284 283 283 283 283 282 283 283 284 284 284 284 284 285 284 284 284 284 284 284 285 285 285 285 286 286 286 286 286 286 285 285 285 285 285 286 286 286 286 287 287 287 287
266 268 271 272 273 273 273 273 273 274 275 276 276 276 276 277 279 279 281 282 282 283 281 276 282 291 293 290 289 286 285 286 286 286 286 285 285 284 284 285 285 285 284 283 283 283 283 283 284 284 285 285 285 285 285 285 285 284 284 284 284 284 284 284 285 285 285 285 286 286 286 286 286 287 287 287 288 288 288 289 289 289 289 289 289 289
268 269 270 271 271 272 273 274 274 274 273 273 274 274 276 278 280 281 282 281 280 281 279 280 287 289 288 289 288 285 285 286 285 286 286 285 285 284 284 285 284 284 283 283 284 284 284 285 285 286 286 286 285 285 285 284 284 284 283 283 283 284 284 284 284 285 285 286 286 287 287 288 288 288 289 289 290 290 290 290 290 290 290 290 289 289
264 265 266 266 268 271 273 274 273 272 272 272 274 275 277 279 280 281 281 280 281 280 281 286 288 286 287 290 287 285 286 286 287 288 287 286 285 284 284 284 283 283 283 283 284 284 285 286 285 285 285 284 284 283 283 283 283 283 283 283 283 284 284 284 285 285 286 286 287 288 288 289 289 290 290 290 291 291 291 291 291 290 290 289 289 288
259 260 262 265 268 271 272 272 272 273 273 274 275 276 278 280 281 282 281 282 283 280 283 289 288 285 290 291 286 285 288 288 287 286 284 283 283 283 283 283 282 283 283 284 284 285 285 285 284 284 283 283 282 282 282 282 282 282 282 283 283 284 285 285 285 286 287 287 288 289 289 289 290 290 290 291 291 291 291 291 290 290 290 289 289 289
258 260 263 265 267 269 270 270 271 273 273 274 275 277 279 281 281 281 282 283 283 282 285 290 286 285 289 288 284 287 288 286 285 282 281 282 282 282 282 282 283 284 284 284 284 284 284 284 284 283 282 282 282 282 282 282 282 283 283 284 284 285 285 286 286 287 287 288 289 289 289 289 290 290 290 290 290 291 291 291 291 290 290 290 289 289
258 261 264 265 265 266 267 268 269 270 271 272 275 277 279 279 280 281 283 285 284 284 287 287 283 284 286 285 285 287 285 282 280 280 281 282 282 282 282 282 284 284 284 284 284 284 284 283 283 282 282 283 283 283 283 283 283 284 284 285 285 286 286 286 287 288 288 289 289 289 289 289 289 290 290 290 291 291 291 291 291 291 290 290 290 289
261 263 264 266 266 266 267 268 269 270 272 274 276 277 278 279 281 284 286 286 284 284 285 283 281 283 286 285 285 283 279 278 279 281 282 281 281 281 282 283 284 284 283 283 283 283 283 283 283 283 283 283 283 283 284 284 285 285 285 286 286 286 286 287 287 288 288 289 289 289 289 289 290 291 291 291 292 292 292 292 291 291 290 290 290 289
263 265 266 266 266 267 269 269 269 271 274 275 277 278 280 283 286 286 285 284 284 284 283 281 283 286 288 285 282 280 280 280 281 281 281 281 281 281 282 283 283 282 283 283 283 283 283 282 283 283 283 283 283 284 284 285 285 286 286 286 286 286 287 287 288 288 288 288 288 289 290 290 291 292 292 292 292 292 292 291 291 291 290 290 290 290
262 263 264 263 262 265 267 268 269 272 273 275 279 281 283 286 286 284 282 283 284 283 282 283 286 288 287 284 283 283 282 281 281 280 280 280 281 281 282 282 282 281 282 282 282 282 282 283 283 283 284 284 284 284 285 285 286 286 286 286 287 287 287 287 288 288 288 289 289 290 291 291 292 292 292 292 292 292 291 291 290 290 290 290 290 289
258 258 258 258 259 263 267 270 272 273 273 276 281 283 284 285 284 283 284 284 283 282 282 285 287 286 285 284 284 283 281 281 280 280 280 280 280 281 282 281 281 281 281 281 282 282 283 284 284 284 284 284 284 285 285 286 287 287 287 287 287 287 287 288 288 289 289 290 291 291 292 292 292 292 292 292 291 290 290 289 289 289 288 288 288 288
256 257 259 262 265 269 272 273 273 274 276 280 283 283 284 285 285 284 285 284 283 283 283 284 285 284 284 283 282 281 281 280 280 280 281 281 281 281 281 280 281 281 282 283 283 284 284 285 284 284 284 285 286 286 287 287 287 286 287 287 287 287 288 289 289 290 291 291 292 292 292 292 291 291 291 290 290 289 289 288 288 288 288 288 288 288
262 264 267 269 271 273 275 275 276 278 281 283 283 284 287 287 286 285 283 282 282 282 282 283 283 283 283 283 282 281 280 280 281 282 282 281 281 281 281 281 282 283 283 284 284 284 285 284 284 285 286 286 287 287 287 287 286 287 287 287 288 288 289 290 290 291 291 292 292 292 291 291 290 290 290 289 288 288 288 288 289 289 289 290 290 290
267 269 271 272 273 275 276 277 279 280 280 281 284 288 290 288 284 282 280 280 281 281 281 282 282 283 283 282 281 280 280 280 281 282 282 280 280 281 282 283 284 284 284 285 285 285 284 285 285 286 287 287 287 287 287 287 287 287 288 288 289 289 289 290 290 291 291 291 291 291 290 290 289 289 289 288 288 289 289 290 290 291 291 291 291 291
268 269 271 273 275 277 277 278 279 279 280 284 288 289 287 284 281 280 279 279 280 280 280 281 282 282 281 280 280 280 280 280 281 282 280 280 281 282 283 284 284 284 285 285 285 285 285 285 286 287 287 287 287 288 288 288 288 289 289 289 289 289 290 290 290 290 290 290 290 289 289 289 289 288 288 289 289 290 290 291 291 291 291 291 291 292
267 269 272 274 276 277 277 277 277 279 282 287 288 286 283 281 280 279 278 278 281 281 280 280 280 278 278 278 279 280 280 280 281 281 280 281 283 283 283 284 284 284 285 285 285 285 286 287 287 288 288 289 289 289 289 289 289 290 290 290 290 290 290 290 290 290 289 289 289 288 288 288 288 289 289 290 290 291 291 291 291 291 291 291 291 291
266 269 273 276 277 278 278 278 278 280 283 286 286 284 282 281 280 278 277 280 283 280 277 276 276 276 277 278 279 279 279 280 281 281 282 283 284 284 284 284 284 284 284 285 286 286 287 288 288 289 289 290 290 290 290 290 290 290 290 290 290 290 290 289 289 289 288 288 288 288 288 288 289 289 290 290 290 290 290 290 290 290 290 290 291 291
267 271 275 278 279 279 279 279 279 279 282 285 285 282 281 280 278 276 277 280 280 277 276 277 277 278 278 278 277 278 279 281 282 282 283 283 284 284 284 284 284 284 285 286 287 288 288 289 289 290 290 290 290 290 290 290 290 289 289 289 289 289 289 289 289 288 288 288 288 288 288 288 288 289 289 289 290 290 290 289 289 290 290 290 291 292
270 274 276 277 277 278 278 278 277 278 283 286 284 280 279 277 276 277 278 278 278 279 280 280 279 278 277 277 277 279 280 282 282 282 283 283 284 284 284 284 285 286 287 287 288 289 289 289 290 290 290 290 290 290 290 289 289 289 289 288 288 288 288 288 288 287 287 287 287 287 287 287 288 288 289 289 289 289 289 289 290 290 291 291 292 292
272 273 274 275 276 276 275 273 274 279 284 284 279 277 278 277 277 279 279 279 280 280 280 278 278 277 278 279 280 281 282 283 283 283 283 283 284 284 285 286 287 287 288 288 289 289 289 290 290 290 289 289 289 289 289 288 288 287 287 287 287 287 287 287 287 286 286 286 286 287 287 288 288 288 289 289 289 289 290 290 290 291 292 292 293 294
271 271 273 275 275 274 272 272 275 279 281 279 277 278 279 278 278 279 279 279 279 278 277 277 278 279 280 282 283 284 284 283 283 283 284 284 284 285 286 287 287 288 288 289 289 289 290 290 290 289 289 290 289 289 288 287 286 286 286 286 286 286 287 286 286 286 286 287 287 288 288 288 288 289 289 289 289 290 290 290 291 292 293 294 295 295
273 274 275 275 274 273 273 274 276 278 278 278 278 277 276 276 278 278 278 278 278 277 277 278 279 280 282 283 284 284 284 283 283 284 285 285 286 286 287 287 288 288 289 289 290 290 290 290 290 290 290 290 289 287 286 286 285 285 286 286 287 288 287 287 287 288 288 288 289 289 289 289 289 289 289 289 289 290 290 291 292 293 295 296 296 297
271 273 273 273 273 273 273 275 276 277 277 276 275 274 275 276 277 277 276 276 276 277 278 279 281 283 283 284 284 284 283 284 285 285 286 286 287 287 288 288 289 289 290 291 291 291 290 290 291 291 290 289 288 287 286 286 286 286 286 287 289 289 289 290 290 290 290 290 290 290 290 290 289 289 289 290 290 291 291 292 294 295 296 297 298 298
269 270 270 271 271 271 273 274 275 275 274 274 274 274 275 275 275 275 275 276 276 278 280 282 283 283 284 284 284 284 284 286 286 287 287 287 288 288 289 289 290 291 292 292 292 292 292 292 291 291 290 289 288 287 287 287 287 287 288 289 290 291 292 292 292 292 292 292 291 291 291 291 290 290 290 290 291 292 293 294 295 296 297 298 298 300
268 267 268 270 271 272 273 274 274 273 274 274 274 273 273 273 274 275 276 277 278 280 282 283 284 283 284 284 284 285 286 288 288 288 288 289 289 290 291 291 292 293 293 293 293 292 292 292 291 291 289 289 288 287 287 287 288 288 289 291 292 293 293 293 293 293 293 293 292 292 292 292 291 291 291 291 292 293 293 294 295 296 298 299 299 300
265 266 268 271 272 272 274 275 274 274 273 271 271 271 273 275 276 277 277 279 280 282 283 283 283 284 284 285 286 287 288 289 289 289 290 290 291 292 293 294 294 294 294 294 293 292 292 292 291 290 289 288 288 288 288 288 289 290 291 292 293 293 293 293 293 294 294 294 294 293 293 292 292 291 292 292 292 293 294 295 296 297 298 299 301 302
265 268 271 272 272 273 274 273 272 271 270 270 272 274 275 276 277 278 279 280 281 282 283 283 284 284 285 286 288 289 289 290 290 290 291 292 293 294 295 296 296 295 295 294 293 292 292 291 290 289 289 288 288 289 289 289 290 291 292 294 294 294 295 295 295 295 295 295 295 295 295 294 293 293 293 292 293 293 294 295 296 297 298 299 301 303
267 270 271 272 273 272 270 270 270 271 271 273 275 276 276 277 277 278 279 281 282 282 283 283 284 285 286 288 289 289 290 291 291 291 292 293 295 297 298 298 297 296 295 294 293 292 291 289 289 289 288 289 289 289 290 290 291 293 295 296 297 297 297 297 297 297 297 296 296 296 296 296 296 295 294 293 293 293 294 295 296 297 299 300 301 303
Height
5817 5816 5819 5822 5821 5818 5816 5816 5817 5817 5818 5818 5818 5817 5817 5818 5820 5820 5818 5816 5815 5813 5815 5816 5815 5816 5817 5816 5815 5816 5815 5815 5815 5814 5814 5814 5814 5814 5813 5813 5812 5812 5812 5812 5811 5811 5810 5810 5809 5808 5807 5806 5805 5805 5804 5803 5802 5802 5802 5801 5801 5800 5799 5798 5797 5796 5795 5794 5793 5792 5791 5790 5789 5788 5788 5787 5786 5785 5784 5783 5782 5781 5780 5779 5779 5778
5812 5813 5817 5818 5815 5813 5813 5813 5813 5813 5814 5814 5814 5813 5814 5814 5815 5815 5813 5812 5811 5809 5810 5812 5811 5812 5813 5812 5812 5812 5812 5811 5811 5810 5810 5811 5811 5811 5809 5808 5808 5808 5807 5807 5807 5806 5806 5805 5805 5804 5803 5803 5802 5802 5801 5800 5799 5798 5798 5797 5796 5796 5795 5794 5793 5792 5791 5790 5789 5787 5786 5785 5784 5783 5782 5781 5780 5780 5779 5778 5777 5776 5775 5774 5774 5773
5808 5810 5814 5813 5810 5810 5810 5810 5809 5809 5810 5810 5810 5809 5810 5811 5810 5809 5809 5808 5807 5806 5806 5807 5807 5808 5809 5809 5809 5809 5808 5807 5806 5806 5807 5807 5807 5806 5805 5804 5804 5803 5803 5802 5802 5802 5801 5801 5800 5800 5799 5799 5798 5798 5797 5797 5796 5795 5794 5793 5792 5791 5790 5789 5788 5787 5786 5785 5784 5782 5781 5780 5779 5778 5777 5776 5775 5774 5773 5772 5772 5771 5770 5769 5769 5768
5803 5807 5810 5807 5806 5806 5806 5806 5806 5805 5806 5806 5806 5806 5807 5807 5805 5804 5805 5804 5803 5802 5802 5802 5802 5804 5806 5806 5805 5804 5804 5803 5802 5803 5803 5803 5803 5802 5801 5801 5800 5799 5799 5798 5798 5797 5797 5796 5796 5795 5795 5794 5794 5793 5792 5792 5791 5790 5789 5789 5787 5786 5785 5784 5783 5782 5781 5779 5778 5777 5776 5775 5774 5773 5772 5771 5770 5769 5768 5767 5766 5765 5764 5764 5763 5762
5800 5804 5804 5803 5802 5801 5802 5802 5802 5802 5801 5801 5802 5802 5802 5802 5800 5799 5800 5800 5799 5799 5799 5798 5797 5800 5803 5802 5801 5800 5799 5799 5798 5799 5799 5798 5798 5797 5797 5797 5796 5796 5795 5794 5793 5793 5792 5792 5791 5791 5790 5790 5789 5788 5787 5786 5786 5785 5784 5783 5782 5781 5780 5779 5778 5777 5776 5774 5773 5771 5770 5769 5768 5767 5766 5765 5764 5763 5762 5761 5760 5759 5759 5758 5757 5756
5796 5800 5799 5798 5798 5797 5797 5798 5799 5798 5796 5797 5799 5799 5798 5797 5796 5796 5795 5795 5794 5794 5795 5793 5792 5795 5798 5797 5797 5797 5795 5795 5795 5795 5795 5794 5794 5793 5792 5792 5792 5791 5791 5790 5789 5788 5788 5787 5787 5786 5785 5784 5783 5782 5781 5781 5780 5779 5778 5778 5777 5776 5775 5774 5773 5771 5770 5769 5767 5766 5764 5763 5762 5760 5759 5758 5758 5757 5756 5755 5754 5753 5752 5752 5751 5750
5793 5796 5793 5793 5793 5793 5793 5794 5794 5792 5791 5793 5795 5794 5793 5792 5792 5791 5791 5790 5790 5790 5790 5790 5789 5790 5791 5791 5792 5792 5791 5791 5792 5791 5790 5790 5789 5789 5788 5788 5787 5786 5785 5785 5784 5784 5783 5783 5782 5781 5780 5779 5778 5777 5776 5775 5774 5773 5773 5772 5771 5770 5769 5768 5766 5765 5764 5762 5761 5760 5758 5757 5755 5754 5753 5752 5751 5750 5750 5749 5748 5747 5746 5745 5744 5743
5789 5790 5789 5788 5789 5789 5790 5790 5789 5787 5788 5790 5791 5789 5788 5788 5787 5787 5787 5786 5785 5785 5785 5786 5787 5786 5785 5785 5786 5787 5787 5787 5788 5787 5786 5785 5784 5784 5783 5783 5782 5781 5780 5780 5779 5779 5778 5778 5777 5776 5775 5773 5772 5771 5770 5769 5769 5768 5767 5766 5765 5764 5763 5762 5760 5759 5757 5756 5755 5754 5752 5751 5749 5748 5746 5745 5744 5743 5743 5742 5741 5741 5740 5739 5738 5737
5784 5784 5784 5784 5784 5785 5785 5784 5783 5784 5784 5785 5785 5785 5784 5783 5783 5782 5782 5782 5781 5781 5781 5783 5784 5781 5779 5779 5779 5781 5783 5783 5783 5782 5781 5781 5780 5780 5779 5778 5777 5776 5775 5775 5774 5773 5773 5772 5771 5770 5769 5768 5767 5765 5764 5763 5762 5761 5760 5759 5758 5757 5756 5755 5754 5752 5751 5749 5748 5747 5745 5744 5743 5741 5740 5739 5738 5736 5736 5735 5734 5733 5732 5732 5731 5730
5777 5778 5779 5779 5779 5780 5780 5779 5779 5780 5780 5781 5781 5781 5780 5779 5778 5778 5778 5778 5777 5777 5777 5779 5780 5776 5773 5773 5774 5776 5778 5777 5776 5777 5776 5776 5775 5774 5774 5773 5772 5771 5770 5769 5768 5767 5766 5765 5764 5763 5762 5761 5760 5759 5758 5756 5755 5754 5753 5752 5751 5750 5749 5747 5746 5745 5743 5742 5740 5739 5738 5737 5736 5735 5733 5732 5731 5730 5728 5727 5726 5725 5725 5724 5723 5722
5772 5773 5774 5774 5775 5775 5774 5775 5775 5775 5776 5776 5776 5776 5775 5774 5774 5774 5774 5774 5773 5773 5774 5775 5775 5773 5769 5768 5770 5771 5771 5770 5770 5769 5769 5769 5769 5768 5767 5766 5765 5764 5763 5762 5761 5761 5759 5759 5758 5757 5756 5755 5753 5752 5751 5749 5748 5747 5746 5745 5743 5742 5740 5739 5737 5736 5734 5733 5732 5731 5730 5729 5728 5727 5726 5725 5724 5723 5721 5720 5719 5717 5716 5715 5714 5713
5766 5767 5768 5769 5769 5769 5770 5770 5771 5771 5771 5771 5771 5771 5771 5770 5770 5769 5770 5770 5770 5769 5770 5770 5769 5768 5766 5766 5767 5766 5765 5765 5763 5762 5762 5761 5761 5761 5760 5759 5758 5757 5756 5755 5754 5753 5752 5751 5750 5749 5748 5747 5746 5744 5743 5742 5741 5739 5738 5736 5735 5733 5732 5731 5729 5728 5726 5725 5724 5723 5722 5720 5719 5718 5717 5716 5715 5714 5714 5712 5711 5710 5708 5707 5706 5704
5760 5761 5762 5763 5764 5765 5765 5766 5766 5767 5766 5766 5765 5765 5765 5765 5765 5765 5766 5766 5765 5765 5765 5765 5764 5763 5763 5764 5764 5762 5760 5760 5758 5758 5757 5756 5755 5754 5753 5752 5751 5750 5749 5748 5747 5746 5745 5744 5743 5742 5740 5739 5738 5737 5735 5734 5733 5731 5730 5728 5727 5725 5724 5723 5721 5720 5718 5717 5716 5714 5713 5712 5711 5710 5708 5708 5707 5706 5705 5704 5703 5701 5700 5698 5697 5695
5755 5756 5757 5758 5760 5760 5761 5761 5762 5761 5760 5760 5760 5760 5760 5760 5760 5761 5761 5760 5760 5760 5761 5761 5759 5759 5759 5760 5760 5757 5756 5755 5755 5754 5752 5751 5750 5748 5747 5746 5745 5744 5742 5741 5740 5739 5738 5737 5736 5735 5733 5732 5730 5729 5728 5726 5725 5723 5722 5720 5719 5717 5715 5714 5712 5711 5710 5708 5707 5706 5704 5703 5702 5701 5700 5699 5698 5697 5695 5694 5693 5692 5691 5689 5687 5686
5750 5751 5752 5754 5755 5756 5756 5756 5756 5755 5755 5755 5755 5754 5755 5755 5756 5756 5755 5753 5754 5755 5756 5755 5754 5755 5756 5756 5754 5752 5750 5749 5750 5748 5747 5746 5745 5743 5743 5741 5739 5737 5735 5734 5733 5732 5731 5730 5729 5727 5726 5725 5723 5721 5720 5718 5717 5715 5714 5712 5710 5709 5707 5705 5703 5702 5701 5699 5698 5697 5695 5694 5693 5692 5691 5690 5688 5687 5686 5684 5683 5682 5680 5679 5678 5676
5745 5746 5748 5749 5750 5750 5750 5750 5750 5750 5749 5749 5749 5749 5750 5751 5750 5749 5748 5748 5748 5749 5749 5749 5749 5750 5751 5751 5748 5745 5744 5743 5743 5742 5741 5740 5739 5738 5737 5735 5733 5731 5729 5728 5727 5726 5725 5723 5721 5720 5718 5717 5715 5713 5712 5710 5708 5707 5705 5703 5702 5700 5699 5697 5695 5693 5691 5690 5689 5688 5687 5686 5685 5683 5682 5681 5679 5678 5676 5674 5673 5671 5670 5669 5668 5666
5740 5741 5743 5743 5744 5744 5744 5744 5744 5744 5743 5744 5744 5745 5746 5745 5743 5742 5742 5743 5743 5741 5743 5744 5743 5744 5745 5743 5742 5740 5738 5737 5736 5736 5735 5734 5733 5731 5729 5728 5726 5724 5722 5721 5720 5719 5717 5715 5714 5712 5710 5709 5707 5705 5703 5702 5700 5698 5696 5695 5693 5692 5690 5688 5686 5684 5682 5681 5680 5679 5678 5677 5676 5674 5673 5671 5670 5668 5666 5665 5663 5661 5660 5659 5657 5656
5734 5735 5737 5738 5738 5738 5738 5738 5738 5738 5738 5739 5740 5741 5740 5738 5737 5736 5736 5737 5737 5734 5735 5738 5738 5739 5738 5735 5735 5735 5733 5731 5730 5730 5729 5726 5724 5722 5721 5720 5718 5717 5716 5714 5713 5711 5709 5707 5705 5703 5702 5700 5698 5697 5695 5693 5692 5690 5688 5686 5685 5683 5681 5679 5677 5675 5674 5673 5672 5670 5669 5668 5666 5665 5663 5662 5660 5659 5657 5655 5654 5652 5651 5649 5648 5646
5729 5730 5731 5732 5732 5733 5733 5733 5733 5733 5734 5735 5735 5735 5734 5731 5731 5731 5730 5731 5730 5726 5726 5730 5732 5733 5731 5728 5728 5729 5728 5726 5724 5723 5721 5718 5716 5715 5713 5712 5711 5710 5708 5707 5705 5703 5701 5699 5697 5695 5693 5691 5690 5688 5686 5685 5683 5681 5679 5678 5676 5673 5672 5670 5668 5667 5665 5664 5663 5662 5660 5659 5657 5656 5654 5652 5651 5649 5648 5646 5645 5643 5642 5640 5639 5638
5724 5724 5724 5725 5727 5727 5727 5728 5728 5729 5730 5729 5728 5728 5727 5726 5725 5725 5724 5723 5722 5718 5718 5721 5723 5727 5726 5720 5718 5721 5722 5721 5717 5714 5712 5710 5709 5708 5706 5705 5704 5703 5701 5699 5697 5695 5693 5690 5688 5686 5685 5683 5681 5679 5677 5676 5674 5672 5670 5669 5667 5665 5663 5661 5659 5658 5656 5655 5654 5652 5651 5649 5648 5647 5645 5643 5642 5640 5639 5637 5636 5634 5633 5632 5630 5629
5717 5718 5719 5720 5720 5720 5721 5722 5723 5723 5722 5721 5721 5721 5721 5720 5719 5718 5717 5717 5715 5712 5711 5710 5711 5720 5721 5712 5709 5713 5713 5711 5709 5707 5705 5703 5702 5701 5700 5698 5696 5694 5693 5691 5689 5687 5684 5681 5679 5678 5676 5674 5672 5669 5667 5666 5664 5662 5661 5659 5657 5656 5654 5652 5650 5649 5647 5646 5645 5643 5642 5640 5639 5638 5636 5635 5633 5632 5630 5629 5627 5625 5624 5622 5620 5618
5712 5712 5713 5713 5713 5714 5715 5716 5716 5715 5714 5714 5714 5715 5715 5714 5713 5710 5708 5710 5709 5704 5704 5700 5696 5708 5714 5705 5703 5706 5703 5701 5702 5701 5699 5697 5695 5694 5692 5690 5688 5687 5685 5683 5681 5678 5675 5673 5671 5669 5667 5664 5662 5660 5658 5656 5654 5652 5651 5649 5648 5646 5645 5643 5641 5639 5638 5637 5635 5634 5633 5631 5630 5629 5627 5626 5624 5622 5621 5619 5617 5615 5614 5612 5610 5608
5705 5705 5706 5706 5707 5708 5708 5708 5708 5707 5707 5707 5708 5709 5709 5707 5706 5703 5700 5703 5701 5696 5695 5690 5684 5694 5704 5700 5698 5698 5695 5695 5696 5694 5691 5689 5688 5686 5683 5680 5679 5679 5677 5675 5672 5669 5666 5665 5662 5660 5658 5655 5653 5651 5649 5647 5645 5643 5642 5640 5639 5637 5635 5633 5631 5630 5628 5627 5626 5625 5624 5622 5621 5619 5618 5616 5614 5613 5611 5609 5607 5605 5603 5601 5599 5597
5698 5698 5699 5700 5700 5700 5699 5700 5701 5700 5700 5701 5702 5704 5702 5699 5699 5697 5693 5693 5691 5688 5687 5681 5676 5685 5695 5695 5693 5690 5687 5688 5688 5686 5684 5682 5680 5677 5673 5672 5671 5669 5667 5664 5662 5660 5658 5655 5653 5651 5648 5646 5644 5642 5640 5639 5637 5635 5634 5632 5630 5628 5626 5624 5623 5621 5619 5618 5617 5616 5614 5613 5611 5610 5608 5606 5604 5602 5600 5598 5596 5594 5592 5589 5587 5584
5690 5690 5692 5692 5691 5691 5691 5692 5693 5695 5695 5695 5695 5695 5693 5692 5692 5688 5686 5684 5679 5678 5680 5674 5670 5679 5687 5687 5684 5682 5680 5680 5678 5677 5676 5674 5670 5668 5666 5664 5663 5660 5656 5654 5653 5651 5648 5645 5643 5641 5639 5638 5636 5634 5632 5631 5630 5628 5626 5624 5622 5620 5618 5616 5614 5612 5611 5610 5608 5607 5605 5603 5601 5599 5597 5594 5592 5590 5588 5586 5584 5581 5579 5577 5574 5572
5683 5682 5683 5684 5682 5683 5683 5684 5687 5690 5688 5686 5687 5687 5686 5686 5684 5681 5680 5676 5669 5668 5672 5671 5668 5671 5677 5678 5674 5672 5672 5671 5669 5667 5665 5663 5660 5659 5657 5655 5653 5650 5648 5646 5644 5642 5639 5637 5635 5633 5631 5629 5627 5625 5624 5623 5622 5620 5617 5615 5613 5611 5610 5607 5605 5604 5602 5600 5599 5597 5595 5592 5590 5588 5585 5583 5580 5578 5576 5574 5571 5569 5567 5565 5562 5559
5675 5674 5675 5675 5675 5676 5677 5677 5678 5680 5679 5677 5679 5680 5679 5678 5677 5675 5670 5666 5663 5661 5662 5667 5666 5662 5668 5670 5663 5661 5663 5662 5660 5659 5655 5652 5650 5648 5647 5645 5642 5641 5640 5638 5635 5633 5631 5629 5627 5625 5624 5622 5619 5617 5616 5615 5614 5611 5608 5606 5604 5603 5601 5598 5596 5595 5593 5591 5589 5587 5585 5582 5579 5577 5575 5572 5569 5567 5565 5562 5560 5558 5555 5553 5550 5547
5666 5665 5667 5668 5668 5669 5669 5668 5668 5669 5669 5670 5671 5672 5672 5671 5669 5666 5660 5658 5660 5654 5650 5660 5661 5654 5659 5662 5654 5652 5655 5653 5650 5649 5646 5643 5640 5638 5637 5635 5633 5632 5631 5629 5627 5625 5623 5621 5619 5617 5616 5614 5611 5610 5609 5607 5605 5602 5600 5598 5596 5594 5592 5589 5587 5585 5583 5582 5580 5577 5574 5572 5569 5567 5565 5562 5559 5556 5554 5551 5548 5546 5543 5540 5538 5535
5657 5657 5660 5661 5659 5661 5661 5659 5659 5660 5660 5662 5663 5664 5666 5663 5659 5656 5653 5653 5653 5645 5644 5652 5651 5646 5652 5652 5646 5647 5648 5643 5639 5637 5635 5633 5631 5628 5626 5625 5625 5624 5622 5620 5619 5617 5615 5613 5611 5609 5607 5605 5603 5601 5600 5598 5595 5594 5592 5589 5587 5585 5583 5579 5577 5576 5574 5572 5570 5567 5564 5562 5559 5557 5555 5552 5549 5546 5543 5540 5536 5533 5530 5528 5525 5522
5648 5649 5652 5651 5650 5653 5654 5651 5651 5653 5653 5653 5656 5658 5658 5654 5651 5649 5647 5647 5644 5639 5640 5644 5640 5640 5645 5643 5639 5641 5639 5632 5629 5627 5626 5625 5621 5619 5616 5616 5617 5616 5613 5612 5610 5609 5607 5605 5603 5601 5599 5596 5595 5592 5590 5588 5586 5584 5582 5580 5578 5576 5573 5570 5568 5566 5564 5562 5560 5557 5554 5551 5549 5547 5544 5541 5538 5535 5531 5528 5524 5521 5518 5515 5512 5510
5641 5641 5644 5643 5641 5642 5646 5644 5643 5644 5644 5644 5649 5651 5648 5645 5645 5644 5642 5640 5637 5635 5636 5634 5629 5631 5637 5635 5631 5631 5627 5622 5620 5619 5618 5616 5612 5610 5609 5609 5609 5608 5604 5603 5602 5600 5599 5597 5595 5593 5591 5588 5586 5583 5582 5580 5577 5575 5573 5571 5568 5565 5563 5561 5559 5557 5555 5553 5550 5547 5544 5541 5538 5535 5532 5529 5526 5523 5519 5516 5512 5509 5506 5503 5500 5497
5634 5633 5635 5636 5631 5631 5637 5637 5634 5637 5636 5633 5639 5642 5639 5639 5640 5637 5634 5633 5632 5629 5628 5624 5619 5622 5626 5624 5620 5619 5617 5614 5613 5611 5608 5606 5603 5602 5602 5602 5601 5598 5596 5594 5593 5592 5590 5589 5587 5585 5582 5580 5577 5575 5573 5571 5568 5566 5564 5561 5558 5555 5553 5551 5550 5548 5545 5543 5540 5537 5533 5530 5526 5523 5520 5517 5514 5511 5507 5504 5500 5497 5494 5491 5489 5486
5628 5626 5627 5628 5622 5623 5629 5629 5627 5629 5623 5620 5629 5636 5636 5634 5631 5625 5625 5627 5626 5622 5617 5613 5612 5614 5614 5611 5609 5610 5609 5606 5603 5602 5600 5598 5596 5594 5594 5594 5591 5589 5588 5586 5585 5583 5582 5580 5579 5576 5574 5572 5569 5566 5564 5561 5559 5557 5554 5551 5548 5546 5544 5542 5540 5537 5535 5533 5530 5526 5523 5518 5515 5511 5508 5506 5503 5499 5496 5493 5490 5487 5484 5482 5479 5477
5621 5620 5621 5620 5615 5615 5620 5622 5619 5614 5609 5612 5623 5631 5630 5627 5621 5616 5617 5620 5619 5614 5609 5605 5604 5603 5602 5601 5600 5600 5599 5597 5594 5594 5593 5590 5588 5587 5586 5584 5582 5581 5580 5578 5577 5576 5574 5572 5570 5568 5566 5563 5560 5558 5555 5552 5550 5547 5544 5542 5539 5537 5534 5531 5529 5526 5524 5522 5518 5515 5511 5507 5504 5501 5498 5495 5492 5489 5486 5483 5480 5478 5475 5473 5471 5469
5615 5615 5614 5613 5610 5606 5609 5612 5606 5598 5600 5609 5615 5618 5620 5618 5612 5609 5608 5611 5610 5605 5601 5597 5594 5593 5593 5592 5592 5590 5588 5588 5586 5586 5585 5582 5580 5579 5577 5575 5573 5573 5572 5571 5569 5568 5566 5564 5562 5559 5556 5554 5551 5549 5546 5544 5541 5538 5535 5533 5530 5527 5524 5521 5518 5515 5512 5510 5507 5504 5500 5497 5494 5491 5488 5485 5482 5479 5476 5474 5471 5469 5467 5465 5463 5460
5609 5608 5606 5604 5602 5599 5598 5598 5594 5591 5596 5602 5602 5606 5611 5607 5602 5600 5598 5600 5602 5598 5592 5587 5584 5585 5586 5584 5582 5581 5579 5578 5578 5579 5577 5573 5571 5569 5567 5566 5566 5565 5564 5563 5561 5560 5557 5555 5553 5550 5548 5545 5543 5540 5537 5534 5531 5529 5526 5523 5520 5517 5514 5511 5508 5504 5501 5498 5495 5493 5489 5486 5483 5481 5478 5475 5472 5470 5467 5465 5462 5460 5458 5456 5454 5452
5602 5600 5598 5595 5592 5592 5589 5587 5586 5585 5587 5591 5594 5599 5601 5595 5591 5589 5584 5588 5595 5592 5584 5579 5576 5577 5578 5574 5572 5572 5570 5568 5570 5572 5568 5563 5562 5561 5560 5560 5559 5556 5555 5554 5552 5551 5548 5546 5544 5542 5539 5537 5534 5530 5527 5524 5521 5519 5516 5513 5510 5507 5504 5501 5498 5494 5491 5488 5485 5482 5479 5476 5473 5471 5469 5466 5463 5461 5459 5456 5454 5451 5449 5448 5446 5444
5594 5591 5591 5588 5583 5584 5582 5578 5577 5575 5574 5583 5590 5591 5589 5584 5581 5579 5571 5574 5586 5585 5576 5572 5570 5568 5567 5564 5563 5563 5561 5559 5563 5564 5558 5553 5554 5555 5553 5552 5551 5548 5547 5545 5543 5541 5539 5537 5536 5533 5530 5528 5524 5520 5517 5513 5511 5508 5505 5502 5499 5496 5493 5490 5487 5484 5481 5478 5474 5471 5469 5466 5464 5462 5460 5457 5455 5452 5450 5448 5445 5443 5441 5439 5438 5435
5584 5583 5583 5580 5574 5575 5574 5570 5568 5566 5567 5577 5583 5581 5578 5575 5573 5569 5559 5560 5574 5578 5569 5565 5562 5558 5557 5556 5555 5555 5552 5551 5555 5555 5549 5546 5548 5548 5545 5544 5542 5540 5538 5536 5533 5532 5530 5528 5526 5523 5520 5517 5514 5510 5506 5503 5500 5497 5494 5491 5488 5485 5483 5480 5477 5474 5471 5468 5465 5462 5460 5458 5456 5454 5451 5449 5447 5445 5442 5440 5437 5435 5433 5431 5429 5427
5576 5575 5574 5570 5566 5568 5566 5561 5559 5559 5562 5569 5571 5569 5569 5567 5563 5558 5550 5550 5562 5565 5558 5555 5552 5549 5550 5549 5547 5547 5545 5545 5546 5545 5541 5539 5540 5539 5536 5535 5533 5531 5529 5526 5524 5523 5521 5519 5516 5513 5510 5507 5503 5499 5496 5492 5489 5486 5483 5480 5478 5475 5473 5469 5467 5464 5461 5458 5456 5453 5452 5450 5448 5446 5443 5441 5439 5437 5434 5432 5429 5427 5425 5422 5420 5418
5567 5566 5563 5561 5560 5560 5557 5553 5550 5551 5558 5564 5560 5558 5560 5557 5550 5548 5545 5545 5547 5546 5545 5546 5545 5543 5543 5541 5539 5540 5539 5538 5538 5537 5534 5532 5531 5529 5527 5526 5523 5522 5520 5517 5515 5513 5511 5509 5506 5503 5500 5496 5492 5489 5485 5481 5478 5475 5472 5470 5468 5465 5462 5460 5457 5455 5452 5450 5448 5446 5444 5442 5440 5438 5436 5434 5432 5429 5426 5423 5420 5418 5416 5414 5411 5409
5559 5557 5553 5553 5554 5552 5550 5547 5542 5542 5554 5560 5551 5546 5549 5545 5537 5537 5539 5537 5534 5534 5536 5537 5535 5534 5533 5531 5532 5534 5533 5531 5530 5528 5527 5524 5522 5520 5517 5515 5514 5512 5510 5508 5506 5504 5501 5499 5496 5493 5490 5486 5482 5479 5475 5472 5468 5465 5463 5460 5458 5456 5453 5451 5449 5447 5445 5442 5440 5438 5437 5435 5432 5430 5428 5426 5423 5421 5418 5414 5411 5409 5407 5405 5402 5400
5550 5548 5544 5545 5547 5544 5541 5539 5534 5535 5548 5554 5542 5534 5535 5533 5528 5528 5528 5526 5526 5527 5526 5524 5524 5524 5523 5523 5525 5525 5525 5524 5521 5519 5518 5516 5513 5511 5508 5506 5505 5503 5501 5499 5496 5494 5491 5489 5486 5483 5479 5476 5472 5469 5466 5462 5459 5456 5454 5452 5450 5447 5446 5444 5442 5439 5438 5435 5433 5432 5429 5427 5425 5422 5420 5417 5415 5412 5410 5406 5403 5400 5398 5395 5393 5391
5537 5538 5538 5539 5540 5536 5532 5531 5530 5532 5539 5541 5535 5528 5524 5521 5520 5520 5518 5516 5516 5516 5515 5515 5515 5515 5515 5515 5516 5516 5516 5515 5512 5510 5509 5507 5505 5503 5501 5498 5495 5493 5491 5489 5486 5484 5482 5479 5476 5473 5469 5466 5463 5459 5456 5453 5450 5447 5445 5443 5442 5440 5439 5437 5435 5433 5431 5429 5426 5424 5422 5420 5417 5414 5412 5409 5406 5404 5401 5397 5395 5392 5389 5386 5383 5381
5527 5529 5530 5531 5530 5526 5524 5524 5525 5527 5529 5529 5527 5522 5515 5511 5511 5511 5508 5506 5506 5504 5505 5507 5507 5507 5507 5508 5507 5507 5505 5504 5503 5502 5500 5498 5497 5494 5492 5489 5486 5483 5481 5479 5476 5474 5471 5468 5466 5463 5460 5457 5454 5450 5447 5444 5441 5439 5438 5436 5435 5433 5432 5430 5428 5426 5424 5421 5419 5417 5414 5412 5409 5406 5404 5401 5398 5395 5392 5389 5386 5384 5380 5377 5374 5371
5520 5521 5521 5521 5521 5518 5517 5518 5519 5520 5521 5519 5516 5512 5509 5505 5503 5501 5498 5497 5496 5495 5496 5499 5500 5500 5500 5499 5499 5497 5495 5495 5495 5493 5491 5489 5487 5485 5482 5479 5476 5473 5471 5469 5466 5463 5460 5458 5456 5453 5450 5447 5444 5441 5439 5436 5434 5432 5430 5429 5428 5426 5425 5423 5420 5418 5416 5413 5411 5409 5406 5404 5401 5398 5395 5392 5389 5387 5384 5381 5378 5376 5372 5369 5365 5363
5515 5515 5513 5513 5513 5512 5511 5513 5513 5511 5511 5510 5507 5504 5502 5498 5494 5491 5489 5487 5487 5487 5489 5491 5492 5492 5492 5491 5489 5487 5486 5486 5485 5483 5481 5479 5477 5476 5473 5470 5466 5463 5460 5457 5455 5452 5449 5447 5446 5444 5441 5439 5436 5434 5431 5429 5427 5425 5423 5422 5421 5419 5417 5415 5413 5410 5408 5405 5403 5401 5398 5396 5393 5390 5387 5384 5381 5379 5376 5373 5370 5367 5364 5361 5357 5355
5508 5507 5506 5506 5507 5506 5504 5505 5505 5502 5502 5502 5498 5494 5491 5488 5484 5482 5480 5479 5480 5481 5482 5483 5482 5482 5482 5481 5479 5478 5478 5477 5475 5472 5470 5468 5467 5466 5464 5460 5457 5454 5450 5447 5444 5442 5439 5438 5436 5435 5433 5431 5429 5427 5424 5422 5420 5418 5417 5416 5414 5412 5410 5407 5405 5402 5400 5397 5395 5393 5390 5388 5385 5383 5380 5377 5374 5371 5368 5365 5362 5359 5356 5352 5349 5347
5499 5499 5501 5501 5500 5499 5498 5497 5496 5494 5492 5490 5487 5484 5482 5479 5476 5473 5471 5472 5474 5474 5474 5473 5473 5472 5472 5472 5470 5469 5468 5468 5465 5462 5459 5458 5457 5456 5453 5450 5448 5444 5441 5438 5436 5433 5431 5429 5428 5426 5425 5423 5421 5419 5417 5415 5413 5411 5410 5409 5407 5404 5402 5399 5397 5395 5392 5389 5387 5384 5382 5380 5377 5374 5372 5369 5366 5363 5360 5357 5354 5351 5348 5345 5340 5338
5492 5494 5497 5495 5491 5492 5492 5488 5484 5482 5481 5479 5478 5477 5474 5471 5467 5464 5464 5465 5466 5465 5464 5464 5464 5463 5463 5462 5461 5460 5458 5458 5456 5452 5449 5448 5447 5446 5443 5441 5438 5436 5433 5431 5428 5426 5424 5422 5421 5419 5418 5416 5414 5412 5410 5408 5406 5405 5403 5402 5400 5397 5395 5392 5390 5388 5385 5382 5380 5377 5374 5372 5369 5366 5363 5361 5358 5356 5353 5350 5346 5343 5341 5338 5334 5330
5489 5490 5491 5488 5483 5482 5481 5478 5473 5471 5472 5472 5472 5469 5465 5461 5458 5457 5457 5457 5457 5456 5455 5454 5455 5455 5455 5454 5453 5451 5448 5448 5446 5443 5440 5439 5438 5437 5435 5432 5430 5428 5426 5424 5421 5420 5418 5416 5414 5412 5411 5409 5407 5405 5403 5401 5399 5398 5397 5395 5392 5390 5388 5385 5383 5380 5377 5375 5372 5369 5366 5363 5361 5358 5355 5352 5350 5348 5346 5343 5340 5335 5332 5329 5327 5324